• en Suisse
  • Liste des pays
  • À 7 jours
  • Température de l'eau
  • Carte satellitaire
  • Carte météo
  • Widgets météo
  • user-avatar
    Se connecter

    Météo par heure à Varyash-Bash

    Ce jour, 20 Septembre, Jeudi

    Heure Température Précipitation Vent Pression Humidité
    00:00 +8°C° 0.1 mm 6 m/s 741 mmHg 87%
    01:00 +8°C° 0.1 mm 6 m/s 742 mmHg 87%
    02:00 +7°C° 0 mm 6 m/s 742 mmHg 87%
    03:00 +7°C° 0 mm 6 m/s 742 mmHg 88%
    04:00 +7°C° 0 mm 6 m/s 742 mmHg 88%
    05:00 +5°C° 0 mm 6 m/s 742 mmHg 88%
    06:00 +5°C° 0 mm 6 m/s 743 mmHg 89%
    07:00 +5°C° 0 mm 6 m/s 743 mmHg 89%
    08:00 +7°C° 0 mm 6 m/s 743 mmHg 85%
    09:00 +7°C° 0 mm 6 m/s 743 mmHg 81%
    10:00 +8°C° 0 mm 7 m/s 744 mmHg 77%
    11:00 +9°C° 0 mm 7 m/s 744 mmHg 73%
    12:00 +10°C° 0 mm 7 m/s 744 mmHg 68%
    13:00 +11°C° 0 mm 7 m/s 744 mmHg 63%
    14:00 +13°C° 0 mm 6 m/s 744 mmHg 62%
    15:00 +13°C° 0 mm 6 m/s 744 mmHg 61%
    16:00 +13°C° 0 mm 5 m/s 744 mmHg 60%
    17:00 +12°C° 0 mm 5 m/s 745 mmHg 65%
    18:00 +11°C° 0 mm 4 m/s 745 mmHg 70%
    19:00 +10°C° 0 mm 3 m/s 745 mmHg 75%
    20:00 +9°C° 0 mm 3 m/s 745 mmHg 77%
    21:00 +8°C° 0 mm 3 m/s 745 mmHg 79%
    22:00 +8°C° 0 mm 3 m/s 746 mmHg 81%
    23:00 +7°C° 0 mm 3 m/s 746 mmHg 82%

    Demain, 21 Septembre, Vendredi

    Heure Température Précipitation Vent Pression Humidité
    00:00 +7°C° 0 mm 3 m/s 746 mmHg 83%
    01:00 +7°C° 0 mm 2 m/s 746 mmHg 84%
    02:00 +6°C° 0 mm 2 m/s 746 mmHg 86%
    03:00 +6°C° 0 mm 2 m/s 746 mmHg 87%
    04:00 +6°C° 0 mm 2 m/s 746 mmHg 88%
    05:00 +6°C° 0 mm 2 m/s 747 mmHg 88%
    06:00 +5°C° 0 mm 2 m/s 747 mmHg 89%
    07:00 +4°C° 0 mm 3 m/s 748 mmHg 89%
    08:00 +7°C° 0 mm 3 m/s 748 mmHg 82%
    09:00 +9°C° 0 mm 3 m/s 748 mmHg 75%
    10:00 +11°C° 0 mm 4 m/s 749 mmHg 69%
    11:00 +12°C° 0 mm 4 m/s 749 mmHg 64%
    12:00 +13°C° 0 mm 4 m/s 749 mmHg 59%
    13:00 +14°C° 0 mm 4 m/s 749 mmHg 55%
    14:00 +14°C° 0 mm 4 m/s 749 mmHg 54%
    15:00 +15°C° 0 mm 4 m/s 749 mmHg 54%
    16:00 +15°C° 0 mm 4 m/s 750 mmHg 54%
    17:00 +13°C° 0 mm 4 m/s 750 mmHg 59%
    18:00 +12°C° 0 mm 3 m/s 750 mmHg 65%
    19:00 +10°C° 0 mm 2 m/s 751 mmHg 70%
    20:00 +10°C° 0 mm 2 m/s 751 mmHg 72%
    21:00 +9°C° 0 mm 2 m/s 751 mmHg 75%
    22:00 +9°C° 0 mm 2 m/s 752 mmHg 77%
    23:00 +9°C° 0 mm 2 m/s 752 mmHg 81%

    Après-demain, 22 Septembre, Samedi

    Heure Température Précipitation Vent Pression Humidité
    00:00 +8°C° 0 mm 2 m/s 752 mmHg 84%
    01:00 +8°C° 0 mm 2 m/s 753 mmHg 88%
    02:00 +8°C° 0 mm 2 m/s 753 mmHg 90%
    03:00 +8°C° 0 mm 2 m/s 753 mmHg 92%
    04:00 +8°C° 0 mm 2 m/s 753 mmHg 94%
    05:00 +9°C° 0 mm 2 m/s 754 mmHg 95%
    06:00 +9°C° 0 mm 2 m/s 754 mmHg 96%
    07:00 +10°C° 0 mm 2 m/s 754 mmHg 96%
    08:00 +12°C° 0 mm 2 m/s 754 mmHg 91%
    09:00 +14°C° 0 mm 2 m/s 754 mmHg 86%
    10:00 +16°C° 0 mm 3 m/s 755 mmHg 81%
    11:00 +17°C° 0 mm 3 m/s 754 mmHg 77%
    12:00 +19°C° 0 mm 3 m/s 754 mmHg 73%
    13:00 +20°C° 0 mm 4 m/s 754 mmHg 69%
    14:00 +20°C° 0 mm 4 m/s 754 mmHg 70%
    15:00 +20°C° 0 mm 4 m/s 754 mmHg 71%
    16:00 +20°C° 0 mm 4 m/s 754 mmHg 72%
    17:00 +19°C° 0 mm 3 m/s 754 mmHg 78%
    18:00 +18°C° 0 mm 3 m/s 754 mmHg 83%
    19:00 +16°C° 0 mm 3 m/s 754 mmHg 89%
    20:00 +16°C° 0 mm 3 m/s 754 mmHg 90%
    21:00 +14°C° 0 mm 3 m/s 754 mmHg 91%
    22:00 +14°C° 0 mm 3 m/s 754 mmHg 93%
    23:00 +14°C° 0 mm 3 m/s 754 mmHg 93%

    23 Septembre, Dimanche

    Heure Température Précipitation Vent Pression Humidité
    00:00 +13°C° 0 mm 3 m/s 754 mmHg 93%
    01:00 +13°C° 0 mm 3 m/s 754 mmHg 94%
    02:00 +13°C° 0 mm 3 m/s 754 mmHg 94%
    03:00 +13°C° 0 mm 3 m/s 754 mmHg 94%
    04:00 +12°C° 0 mm 3 m/s 754 mmHg 94%
    05:00 +12°C° 0 mm 3 m/s 754 mmHg 94%
    06:00 +12°C° 0 mm 3 m/s 754 mmHg 94%
    07:00 +12°C° 0 mm 3 m/s 754 mmHg 95%
    08:00 +14°C° 0 mm 3 m/s 754 mmHg 89%
    09:00 +16°C° 0 mm 3 m/s 754 mmHg 83%
    10:00 +18°C° 0 mm 3 m/s 754 mmHg 77%
    11:00 +19°C° 0 mm 4 m/s 754 mmHg 73%
    12:00 +20°C° 0 mm 4 m/s 753 mmHg 69%
    13:00 +21°C° 0 mm 4 m/s 753 mmHg 64%
    14:00 +21°C° 0 mm 4 m/s 753 mmHg 64%
    15:00 +21°C° 0 mm 4 m/s 753 mmHg 64%
    16:00 +21°C° 0 mm 4 m/s 752 mmHg 64%
    17:00 +20°C° 0 mm 4 m/s 752 mmHg 70%
    18:00 +18°C° 0 mm 3 m/s 752 mmHg 76%
    19:00 +17°C° 0 mm 3 m/s 751 mmHg 82%
    20:00 +16°C° 0 mm 3 m/s 751 mmHg 83%
    21:00 +16°C° 0 mm 3 m/s 751 mmHg 84%
    22:00 +16°C° 0 mm 3 m/s 751 mmHg 85%
    23:00 +14°C° 0 mm 4 m/s 751 mmHg 83%

    24 Septembre, Lundi

    Heure Température Précipitation Vent Pression Humidité
    00:00 +14°C° 0 mm 4 m/s 751 mmHg 82%
    01:00 +14°C° 0 mm 4 m/s 750 mmHg 80%
    02:00 +13°C° 0 mm 4 m/s 750 mmHg 78%
    03:00 +13°C° 0 mm 4 m/s 750 mmHg 75%
    04:00 +13°C° 0 mm 4 m/s 750 mmHg 73%
    05:00 +13°C° 0 mm 4 m/s 749 mmHg 70%
    06:00 +12°C° 0 mm 5 m/s 749 mmHg 68%
    07:00 +12°C° 0 mm 5 m/s 749 mmHg 66%
    08:00 +14°C° 0 mm 5 m/s 749 mmHg 61%
    09:00 +16°C° 0 mm 6 m/s 749 mmHg 56%
    10:00 +17°C° 0 mm 7 m/s 749 mmHg 50%
    11:00 +18°C° 0 mm 7 m/s 748 mmHg 48%
    12:00 +20°C° 0 mm 7 m/s 748 mmHg 46%
    13:00 +22°C° 0 mm 7 m/s 748 mmHg 44%
    14:00 +21°C° 0 mm 6 m/s 748 mmHg 46%
    15:00 +21°C° 0 mm 5 m/s 749 mmHg 48%
    16:00 +21°C° 0 mm 4 m/s 749 mmHg 50%
    17:00 +19°C° 0 mm 4 m/s 749 mmHg 55%
    18:00 +18°C° 0 mm 3 m/s 749 mmHg 61%
    19:00 +16°C° 0 mm 2 m/s 749 mmHg 66%
    20:00 +16°C° 0 mm 2 m/s 749 mmHg 67%
    21:00 +15°C° 0 mm 2 m/s 749 mmHg 68%
    22:00 +15°C° 0 mm 2 m/s 748 mmHg 69%
    23:00 +15°C° 0 mm 2 m/s 748 mmHg 66%

    25 Septembre, Mardi

    Heure Température Précipitation Vent Pression Humidité
    00:00 +14°C° 0 mm 3 m/s 748 mmHg 64%
    01:00 +14°C° 0 mm 4 m/s 747 mmHg 62%
    02:00 +14°C° 0 mm 4 m/s 747 mmHg 60%
    03:00 +14°C° 0 mm 5 m/s 747 mmHg 59%
    04:00 +14°C° 0 mm 5 m/s 747 mmHg 58%
    05:00 +14°C° 0 mm 5 m/s 747 mmHg 62%
    06:00 +14°C° 0 mm 5 m/s 746 mmHg 66%
    07:00 +14°C° 0 mm 5 m/s 746 mmHg 71%
    08:00 +15°C° 0 mm 7 m/s 746 mmHg 69%
    09:00 +16°C° 0 mm 8 m/s 745 mmHg 67%
    10:00 +18°C° 0 mm 9 m/s 745 mmHg 66%
    11:00 +18°C° 0 mm 9 m/s 745 mmHg 64%
    12:00 +18°C° 0 mm 9 m/s 745 mmHg 62%
    13:00 +19°C° 0 mm 9 m/s 744 mmHg 60%
    14:00 +18°C° 0.3 mm 8 m/s 744 mmHg 65%
    15:00 +17°C° 0.3 mm 8 m/s 744 mmHg 70%
    16:00 +15°C° 0.3 mm 7 m/s 744 mmHg 75%
    17:00 +14°C° 0.4 mm 7 m/s 744 mmHg 74%
    18:00 +13°C° 0.4 mm 6 m/s 744 mmHg 73%
    19:00 +12°C° 0.4 mm 5 m/s 745 mmHg 72%
    20:00 +12°C° 0 mm 5 m/s 745 mmHg 73%
    21:00 +12°C° 0 mm 5 m/s 745 mmHg 74%
    22:00 +12°C° 0 mm 5 m/s 745 mmHg 75%
    23:00 +10°C° 0 mm 5 m/s 745 mmHg 78%
    Voir plus